Progress Software PE Ratio 2006-2021 | PRGS

Current and historical p/e ratio for Progress Software (PRGS) from 2006 to 2021. The price to earnings ratio is calculated by taking the latest closing price and dividing it by the most recent earnings per share (EPS) number. The PE ratio is a simple way to assess whether a stock is over or under valued and is the most widely used valuation measure. Progress Software PE ratio as of August 04, 2021 is 15.53.

Please refer to the Stock Price Adjustment Guide for more information on our historical prices.

Progress Software PE Ratio Historical Data
Date Stock Price TTM Net EPS PE Ratio
2021-08-04 45.29 27.62
2021-05-31 44.57 $1.64 27.18
2021-02-28 42.37 $1.71 24.78
2020-11-30 39.78 $1.75 22.73
2020-08-31 37.42 $1.25 29.94
2020-05-31 39.73 $1.02 38.95
2020-02-29 36.52 $0.83 44.00
2019-11-30 40.96 $0.58 70.63
2019-08-31 36.70 $1.10 33.36
2019-05-31 39.62 $1.17 33.86
2019-02-28 35.44 $1.32 26.85
2018-11-30 33.74 $1.38 24.45
2018-08-31 39.11 $1.31 29.85
2018-05-31 36.07 $1.17 30.83
2018-02-28 44.46 $1.05 42.34
2017-11-30 39.10 $0.77 50.78
2017-08-31 31.65 $-1.09 0.00
2017-05-31 27.42 $-1.17 0.00
2017-02-28 26.82 $-1.24 0.00
2016-11-30 27.53 $-1.17 0.00
2016-08-31 26.90 $0.16 168.11
2016-05-31 24.41 $-0.07 0.00
2016-02-29 23.38 $-0.10 0.00
2015-11-30 22.24 $-0.18 0.00
2015-08-31 25.12 $0.29 86.61
2015-05-31 24.41 $0.59 41.38
2015-02-28 25.35 $0.73 34.73
2014-11-30 23.91 $0.96 24.91
2014-08-31 21.47 $0.97 22.14
2014-05-31 20.14 $1.21 16.64
2014-02-28 23.12 $1.03 22.45
2013-11-30 24.42 $1.35 18.09
2013-08-31 22.68 $1.63 13.91
2013-05-31 21.80 $1.26 17.30
2013-02-28 20.88 $1.16 18.00
2012-11-30 18.65 $0.75 24.86
2012-08-31 17.83 $0.36 49.53
2012-05-31 17.82 $0.40 44.55
2012-02-29 21.53 $0.69 31.20
2011-11-30 18.89 $0.86 21.96
2011-08-31 19.30 $0.99 19.43
2011-05-31 25.10 $1.00 25.02
2011-02-28 27.22 $1.03 26.43
2010-11-30 23.81 $0.73 32.76
2010-08-31 16.51 $0.68 24.28
2010-05-31 19.74 $0.63 31.50
2010-02-28 17.32 $0.45 38.20
2009-11-30 14.88 $0.53 28.26
2009-08-31 13.77 $0.37 37.56
2009-05-31 13.86 $0.48 28.87
2009-02-28 9.85 $0.59 16.79
2008-11-30 13.15 $0.72 18.27
2008-08-31 18.06 $0.79 22.76
2008-05-31 19.25 $0.79 24.47
2008-02-29 17.64 $0.69 25.45
2007-11-30 19.55 $0.63 30.87
2007-08-31 18.87 $0.56 33.69
2007-05-31 20.31 $0.51 40.09
2007-02-28 17.34 $0.50 34.68
2006-11-30 16.76 $0.46 36.43
Sector Industry Market Cap Revenue
Computer and Technology Computer Software $2.012B $0.442B
Progress offers the leading platform for developing and deploying mission-critical business applications. Progress empowers enterprises and ISVs to build and deliver cognitive-first applications that harness big data to derive business insights and competitive advantage. Progress offers leading technologies for easily building powerful user interfaces across any type of device, a reliable, scalable and secure backend platform to deploy modern applications, leading data connectivity to all sources, and award-winning predictive analytics that brings the power of machine learning to any organization.
Stock Name Country Market Cap PE Ratio
Microsoft (MSFT) United States $2157.676B 36.03
Adobe (ADBE) United States $295.978B 63.79
Oracle (ORCL) United States $250.554B 21.47
Salesforce, Inc (CRM) United States $223.286B 69.09
SAP SE (SAP) Germany $178.796B 22.74
Intuit (INTU) United States $144.877B 69.03
Dassault Systemes SA (DASTY) France $74.871B 65.78
Autodesk (ADSK) United States $72.079B 124.10
VMware (VMW) United States $65.902B 30.67
Synopsys (SNPS) United States $44.125B 56.15
Cadence Design Systems (CDNS) United States $41.475B 58.08
ANSYS (ANSS) United States $32.318B 66.46
SS&C Technologies Holdings (SSNC) United States $19.574B 17.51
Nuance Communications (NUAN) United States $15.665B 144.10
PTC (PTC) United States $15.473B 54.27
Open Text (OTEX) Canada $14.082B 15.96
Citrix Systems (CTXS) United States $12.796B 30.12
Manhattan Associates (MANH) United States $10.385B 110.68
Pegasystems (PEGA) United States $10.344B 0.00
Aspen Technology (AZPN) United States $9.865B 43.17
Trend Micro (TMICY) Japan $7.431B 29.02
Descartes Systems Group (DSGX) Canada $6.167B 107.18
MicroStrategy (MSTR) United States $6.092B 113.03
ACI Worldwide (ACIW) United States $3.959B 21.48
CommVault Systems (CVLT) United States $3.519B 91.32
Blackbaud (BLKB) United States $3.466B 59.16
Cornerstone OnDemand (CSOD) United States $3.229B 21.68
Verint Systems (VRNT) United States $2.764B 16.55
PROS Holdings (PRO) United States $1.868B 0.00
Bottomline Technologies (EPAY) United States $1.826B 143.68
QAD (QADB) United States $1.781B 140.98
Avid Technology (AVID) United States $1.634B 41.08
Sapiens (SPNS) Israel $1.374B 25.08
Canaan (CAN) China $1.237B 0.00
OptimizeRx (OPRX) United States $0.974B 2789.00
Simulations Plus (SLP) United States $0.945B 82.33
Magic Software Enterprises (MGIC) Israel $0.851B 22.24
American Software (AMSWA) United States $0.728B 85.58
Icad Inc (ICAD) United States $0.363B 0.00
Smith Micro Software (SMSI) United States $0.278B 65.00
ServiceSource (SREV) United States $0.155B 0.00
Park City (PCYG) United States $0.109B 51.00
Neonode (NEON) Sweden $0.060B 0.00
NetSol Technologies (NTWK) United States $0.053B 21.18
BSQUARE (BSQR) United States $0.039B 0.00
GSE Systems (GVP) United States $0.028B 0.00
Duolingo (DUOL) United States $0.000B 0.00